Location: La Besse
(45.9801°N, 1.5447°E)
Time: 13:29:25
(UTC+00:00)

Daily predictions for brighter satellites

Satellite Brightness Start Highest point End
(mag) Time Altitude Azimuth Time Altitude Azimuth Time Altitude Azimuth
BREEZE-M DEB (TANK) 3.2 19:11:04 10° WSW 19:14:19 85° NNW 19:24:43 10° ENE
CZ-2C R/B 3.1 19:16:13 10° N 19:21:23 67° WNW 19:26:37 10° SSW
FALCON 9 DEB 4.1 19:19:06 10° S 19:21:32 23° SE 19:24:00 10° E
Cosmos 2098 Rocket 4.5 19:14:26 10° N 19:21:45 86° E 19:29:06 10° S
Cosmos 389 Rocket 3.6 19:19:31 10° SSE 19:22:27 25° E 19:25:25 10° NE
Cosmos 2322 4.4 19:17:33 10° NNW 19:23:05 58° WSW 19:28:36 10° S
ERS-2 2.1 19:20:00 10° NNE 19:23:39 85° ESE 19:27:17 10° SSW
CSL-04 Rocket 4.1 19:19:31 10° S 19:24:45 67° WSW 19:30:02 10° NNW
Ariane Rocket 3.5 19:20:10 10° SE 19:24:56 44° ENE 19:29:43 10° N
Cosmos 614 Rocket 4.2 19:20:48 10° S 19:25:42 48° ESE 19:30:37 10° NNE
COSMOS 2487 4.2 19:24:05 10° SW 19:27:16 36° WNW 19:30:28 10° N
Cosmos 2251 Rocket 3.5 19:22:06 10° S 19:27:25 70° ESE 19:32:45 10° NNE
FALCON 9 DEB 3.9 19:24:39 10° WSW 19:28:01 55° NNW 19:31:24 10° NE
ATLAS 3B R/B 2.9 19:23:25 10° NW 19:30:29 83° SW 19:37:50 10° SSE
Cosmos 2279 Rocket 4.3 19:26:53 10° SSE 19:32:41 45° E 19:38:31 10° NNE
MOS 1 4.4 19:32:43 10° SSE 19:38:15 61° ENE 19:43:50 10° N
Cosmos 1980 4.0 19:33:00 10° NNW 19:38:38 56° ENE 19:44:11 10° SE
SL-16 R/B 3.6 19:34:22 10° N 19:38:53 24° NE 19:43:23 10° E
Cosmos-2242 4.5 19:35:56 10° SE 19:38:56 19° E 19:41:56 10° NE
Cosmos 2026 Rocket 4.0 19:33:17 10° N 19:39:24 86° E 19:45:34 10° S
SME Rocket 3.9 19:36:51 10° N 19:40:48 63° WNW 19:46:02 10° SSW
Cosmos 2151 4.1 19:37:13 10° NNE 19:40:56 27° ENE 19:44:09 12° SE
USA 215 4.2 19:35:42 10° E 19:41:43 41° NNE 19:47:45 10° NW
FALCON 9 DEB 3.7 19:40:35 10° SSW 19:43:18 29° SE 19:46:00 10° ENE
SPOT 3 Rocket 4.3 19:40:39 10° SE 19:45:15 36° ENE 19:49:57 10° N
Cosmos 1455 2.9 19:42:55 10° SSW 19:46:35 56° W 19:50:17 10° N
COSMOS 2455 4.0 19:43:16 10° SSE 19:47:31 20° ESE 19:51:45 10° ENE
SL-4 R/B 2.7 19:46:08 10° SSW 19:50:08 39° SE 19:54:25 10° ENE
IRS-1A Rocket 4.3 19:45:00 10° SSE 19:50:35 77° ENE 19:56:19 10° NNW
Cosmos 2219 Rocket 3.4 19:47:54 10° NW 19:53:13 41° WSW 19:58:28 10° S
USA 186 3.1 19:50:23 10° S 19:53:29 39° W 19:56:28 10° NNW
BREEZE M DEB (TANK) 4.5 19:51:01 10° S 19:54:02 25° ESE 20:00:33 10° ENE
BREEZE-M DEB (TANK) 4.1 19:52:53 10° WSW 19:54:29 15° SSW 19:56:37 10° S
IGS 5A 4.3 19:54:20 15° SE 19:57:12 34° ENE 20:00:59 10° N
Cosmos 1076 Rocket 3.5 19:52:58 10° N 19:57:19 71° E 20:01:36 10° SSE
COSMOS 2428 3.7 19:52:03 10° NW 19:57:30 46° WSW 20:02:56 10° S
OBJECT-B 1.5 19:55:01 10° S 19:58:12 55° W 20:01:24 10° NNW
ATLAS 5 CENTAUR R/B 2.4 19:57:11 10° WNW 19:58:50 24° SW 20:01:00 11° S
Cosmos 1634 Rocket 4.3 19:56:30 10° SSW 20:02:46 72° W 20:08:59 10° N
Cosmos 2292 Rocket 4.1 19:57:24 10° N 20:03:54 74° E 20:08:34 11° SSE
Cosmos 2344 3.7 19:57:19 10° SW 20:04:47 77° NW 20:12:47 10° NE
Cosmos 1356 3.6 20:01:47 10° NNW 20:05:12 69° W 20:08:35 10° S
ARIANE 5 R/B 4.2 20:04:04 15° E 20:06:05 21° ENE 20:09:20 10° NNE
Cosmos 407 Rocket 3.5 20:01:14 10° S 20:06:15 60° ESE 20:11:22 10° NNE
IRIDIUM 104 4.3 20:05:23 10° S 20:10:34 71° E 20:15:47 10° N
Orbus 7S? 4.4 20:08:21 10° W 20:11:10 45° NNW 20:16:22 10° NE
Cosmos 1023 Rocket 4.4 20:06:21 10° S 20:11:19 60° ESE 20:16:20 10° NNE
Meteor 2-3 Rocket 4.0 20:08:12 10° N 20:13:49 52° ENE 20:17:47 19° SE
Cosmos 405 Rocket 3.6 20:13:28 10° NNW 20:17:21 51° W 20:21:08 10° S
Cosmos 44 Rocket 4.2 20:13:30 10° S 20:17:46 28° ESE 20:22:09 10° NE
NOSS 0 Rocket 4.5 20:12:30 10° NW 20:18:35 57° WSW 20:24:39 10° S
Cosmos 1140 Rocket 3.4 20:14:26 10° S 20:19:30 68° ESE 20:24:37 10° NNE
IRIDIUM 114 4.3 20:14:29 10° S 20:19:42 85° E 20:24:57 10° N
Cosmos 1812 Rocket 3.6 20:17:04 10° S 20:21:30 89° W 20:26:00 10° N
Cosmos 1954 Rocket 4.4 20:19:29 13° SSE 20:23:41 39° ESE 20:28:29 10° NE
CZ-2C R/B 3.9 20:20:59 10° NNE 20:25:14 44° E 20:27:43 22° SSE
Timation 2 Rocket 4.0 20:19:53 10° SSW 20:26:24 67° ESE 20:32:39 10° NNE
Cosmos 2237 Rocket 2.4 20:20:51 10° NNW 20:26:28 71° WSW 20:30:47 17° SSE
IRIDIUM 103 4.4 20:23:38 10° S 20:28:51 80° W 20:34:06 10° N
Meteor 2-21 4.4 20:22:46 10° N 20:28:52 88° E 20:34:06 15° S
Abrixas rocket 3.4 20:27:33 10° WNW 20:28:20 20° NW 20:28:20 20° NW
Cosmos 2180 Rocket 4.4 20:22:55 10° S 20:29:05 89° W 20:35:16 10° N
Cosmos 2263 Rocket 4.2 20:34:38 11° ENE 20:34:38 11° ENE 20:35:08 10° ENE
BREEZE M DEB (TANK) 2.9 20:25:15 10° WSW 20:34:13 79° NNW 20:36:34 17° ENE
Spot 2 Rocket 4.0 20:32:07 27° ESE 20:34:24 43° ENE 20:39:12 10° N
Cosmos 1766 Rocket 4.1 20:30:59 10° N 20:35:06 40° ENE 20:36:22 32° ESE
FALCON 9 DEB 2.7 20:37:16 10° WSW 20:40:20 85° NNW 20:41:38 31° NE
Cosmos 2227 Rocket 2.1 20:35:30 10° SSW 20:41:09 84° ESE 20:46:51 10° NNE
Cosmos 2082 3.9 20:37:14 16° S 20:41:23 45° ESE 20:46:44 10° NE
Cosmos 1633 3.0 20:37:52 10° NNW 20:41:26 58° W 20:43:19 24° SSW
Okean 3 Rocket 3.9 20:39:52 10° N 20:44:19 51° ENE 20:45:39 38° SE
FALCON 9 DEB 3.1 20:41:57 10° WSW 20:44:58 66° NNW 20:46:28 26° NE
Cosmos 1655 Rocket 4.1 20:39:46 10° N 20:46:04 80° W 20:50:54 18° S
Lacrosse 5 rocket 3.6 20:43:10 10° NW 20:46:25 21° NNE 20:49:48 10° ENE
Cosmos 2297 Rocket 2.5 20:42:14 10° SW 20:47:50 70° WNW 20:53:31 10° NNE
Cosmos 1869 3.4 20:47:58 46° SE 20:48:37 52° E 20:52:28 10° NNE
Resurs 01 Rocket 2.1 20:46:10 20° S 20:49:06 57° W 20:53:31 10° NNW
Meteor 1-4 Rocket 2.8 20:50:30 47° E 20:50:30 47° E 20:53:40 10° NNE
Genesis I 3.7 20:47:22 10° NW 20:51:18 54° WSW 20:52:33 37° S
FALCON 9 DEB 3.6 20:54:06 10° WSW 20:57:03 51° NNW 20:58:12 30° NE
Cosmos 2219 3.6 20:51:33 10° SW 20:57:07 66° WNW 21:02:44 10° NNE
Cosmos 2084 Rocket 3.8 20:56:27 10° SW 21:00:23 59° NW 21:04:25 10° NNE
Cosmos 1763 Rocket 3.7 20:58:04 10° NNW 21:03:01 51° ENE 21:04:17 41° ESE
Terra 2.6 21:03:52 34° E 21:04:37 36° ENE 21:08:57 10° N
Meteor 2-8 Rocket 4.3 21:02:57 26° S 21:06:35 76° E 21:12:43 10° NNE
BREEZE-M DEB (TANK) 3.1 21:07:23 10° WNW 21:08:46 33° W 21:08:46 33° W
Cosmos 540 Rocket 4.3 21:06:02 10° N 21:10:42 34° ENE 21:11:41 31° E
SPOT 5 2.8 21:14:08 53° ESE 21:14:51 61° ENE 21:19:37 10° N
Cosmos-2242 4.1 21:12:34 13° SW 21:16:10 42° WNW 21:20:17 10° N
NOSS 3-1 (C) 4.2 21:09:03 10° NW 21:16:24 65° NE 21:20:23 34° ESE
SPOT 1/Viking Rocket 3.8 21:14:17 34° S 21:16:31 66° WSW 21:21:44 10° NNW
Meteor 2-2 Rocket 4.4 21:15:41 45° SE 21:16:47 51° E 21:22:17 10° NNE
STPSAT 2 (USA 217) 4.5 21:14:13 10° NNW 21:18:47 83° ENE 21:19:21 67° SE
FALCON 9 DEB 4.0 21:16:03 10° W 21:18:54 42° NNW 21:18:54 42° NNW
Cosmos 1842 Rocket 4.0 21:20:26 47° ENE 21:20:26 47° ENE 21:24:21 10° NNE
Cosmos 676 Rocket 4.2 21:17:20 10° SSW 21:22:26 68° WNW 21:27:37 10° NNE
SL-16 R/B 2.3 21:17:53 10° NNW 21:23:34 70° WSW 21:25:19 44° S
USA 215 3.2 21:21:35 39° ESE 21:24:18 84° NE 21:30:53 10° NW
SL-4 R/B 2.7 21:25:16 10° WSW 21:29:42 62° NNW 21:33:32 15° ENE
COSMOS 2455 3.0 21:26:47 10° SW 21:32:47 75° NW 21:38:50 10° NNE
ERS-1 Rocket 2.9 21:33:53 63° S 21:34:43 85° WSW 21:39:46 10° NNW
Cosmos 1408 Rocket 3.4 21:30:32 10° N 21:34:51 89° NE 21:34:51 89° NE
Cosmos 2221 2.6 21:41:54 67° NNE 21:41:54 67° NNE 21:45:40 10° N
Cosmos 1862 3.6 21:38:08 10° N 21:41:30 62° N 21:41:30 62° N
ARIANE 5 R/B 3.3 21:41:36 42° SW 21:42:14 45° W 21:46:28 10° NNW
Meteor 2-15 Rocket 4.3 21:43:55 52° S 21:45:32 86° E 21:51:39 10° N
Cosmos 1943 3.5 21:43:57 10° NNW 21:49:27 51° ENE 21:50:06 49° E
Cosmos 1745 Rocket 4.1 21:46:26 10° N 21:52:40 58° ENE 21:53:25 54° ESE
Cosmos 1570 Rocket 4.4 21:47:56 10° NNW 21:53:05 50° ENE 21:53:15 50° ENE
Cosmos 1743 Rocket 3.9 21:49:23 10° N 21:53:02 60° NNE 21:53:02 60° NNE
SeaSat 1 4.4 21:49:51 10° NE 21:51:18 17° ENE 21:51:18 17° ENE
Cosmos 44 Rocket 4.2 21:54:08 10° WSW 21:59:05 50° NW 22:04:09 10° NNE
Cosmos 1606 4.4 22:06:56 28° NNE 22:06:56 28° NNE 22:08:48 10° NNE
Cosmos 1741 Rocket 4.1 22:05:12 68° WSW 22:05:46 76° WNW 22:11:05 10° NNE
S3M 4.0 22:05:25 64° ESE 22:05:55 66° E 22:12:16 10° NNE
BREEZE-M DEB (TANK) 3.7 22:00:05 10° WNW 22:06:19 54° W 22:06:19 54° W
Cosmos 1850 Rocket 4.2 22:08:07 61° WSW 22:08:47 68° WNW 22:14:02 10° NNE
Cosmos 1500 Rocket 4.1 22:07:19 10° NNW 22:11:06 58° NW 22:11:06 58° NW
Cosmos 2263 Rocket 2.1 22:16:15 79° ENE 22:16:15 79° ENE 22:21:32 10° NNE
Aureole 1 Rocket 3.6 22:17:34 70° W 22:17:51 71° WNW 22:22:28 10° NNE
H-2A R/B 4.5 22:17:29 10° N 22:21:10 43° NW 22:21:10 43° NW
Cosmos 1386 Rocket 4.2 22:16:00 10° N 22:22:05 89° W 22:22:22 82° S
USA 229 DEB 3.8 22:18:24 10° NW 22:25:46 83° SW 22:27:01 65° SSE
USA 229 3.8 22:18:30 10° NW 22:25:52 83° SW 22:27:08 65° SSE
Lacrosse 5 rocket 2.5 22:22:08 10° NW 22:25:34 43° N 22:25:34 43° N
Cosmos 2208 Rocket 4.2 22:27:56 10° NNW 22:32:47 73° N 22:32:47 73° N
Cosmos 1553 Rocket 4.4 22:33:04 47° WSW 22:34:17 55° WNW 22:40:18 10° N
ALOS 2 4.3 22:35:37 27° NE 22:35:37 27° NE 22:38:20 10° N
Cosmos 841 Rocket 4.1 22:31:53 10° NNW 22:36:20 49° W 22:36:20 49° W
Cosmos 1603 3.9 22:32:35 10° NNW 22:37:52 65° W 22:37:52 65° W
Terra 3.3 22:42:44 28° W 22:42:44 28° W 22:46:31 10° NW
NOSS 3-1 (A) 4.0 22:36:12 10° NW 22:43:47 74° SW 22:45:03 64° S
Meteor 2-17 Rocket 4.4 22:49:35 10° N 22:55:34 82° WNW 22:55:34 82° WNW
USA 215 4.4 23:08:55 30° WSW 23:08:55 30° WSW 23:13:28 10° WNW
SL-4 R/B 3.7 23:05:33 10° WNW 23:09:09 38° NNW 23:09:09 38° NNW
Cosmos 2184 Rocket 4.4 23:08:59 10° N 23:14:58 54° ENE 23:14:58 54° ENE
Cosmos 2315 Rocket 4.1 23:16:01 72° WNW 23:16:01 72° WNW 23:22:21 10° N
ATLAS 5 CENTAUR R/B 4.0 23:19:25 10° NNW 23:23:56 27° NE 23:27:07 18° ENE
SeaSat 1 3.3 23:26:55 10° NNE 23:31:05 46° NNW 23:31:05 46° NNW
Iridium 4 Rocket 4.3 23:38:02 47° NW 23:38:02 47° NW 23:42:12 10° N
Cosmos 1844 4.3 23:41:40 51° NE 23:41:40 51° NE 23:45:58 10° NNE
Cosmos 2074 Rocket 4.0 23:35:23 10° N 23:41:12 77° N 23:41:12 77° N
USA 281 3.7 23:43:08 47° E 23:44:13 51° ENE 23:50:33 10° NNW
